Location: Flotzheim
(48.8375°N, 10.8136°E)
Time: 16:57:24
(UTC+00:00)

Cosmos 2082 Rocket - Pass Details

Date: 23 January 2021
Orbit: 832 x 855 km, 71.0° (Epoch: 28 February)

Event Time Altitude Azimuth Distance (km) Brightness Sun altitude
Rises 17:05:05 0° 335° (NNW) 3,437 5.5 -10.6°
Reaches altitude 10° 17:08:23 10° 354° (N) 2,498 4.6 -11.2°
Maximum altitude 17:12:16 18° 37° (NE) 1,969 3.7 -11.8°
Enters shadow 17:14:16 16° 62° (ENE) 2,119 3.7 -12.1°
